Wind_Speed
41 40 40 40 40 40 39 39 39 38 38 37 36 36 35 34 33 32 32 31 31 31 31 31 30 30 29 29 30 30 30 30 29 30 29 29 28 28 27 27 27 26 26
41 41 41 41 41 41 41 41 41 41 40 39 39 38 37 37 36 35 35 34 33 33 33 33 32 32 31 31 31 31 31 32 32 31 31 30 30 29 28 28 28 28 27
42 42 43 42 42 42 43 43 43 43 42 41 40 40 40 39 39 39 38 37 36 35 35 34 34 35 34 34 34 34 33 33 33 32 31 31 30 30 29 29 28 28 27
45 45 44 44 44 43 44 45 45 45 44 43 43 42 42 41 41 41 40 39 38 38 37 37 37 36 36 35 35 35 34 34 33 33 33 32 31 31 30 30 29 29 28
46 46 47 46 46 46 45 46 47 46 46 45 46 45 44 43 42 41 40 40 40 39 39 39 39 38 38 37 36 36 36 35 35 35 34 33 32 32 31 31 31 30 29
49 49 49 48 48 48 48 48 47 48 48 48 48 48 47 46 45 43 42 41 41 41 41 41 40 40 40 39 38 38 37 36 36 36 35 35 34 33 32 32 32 31 30
51 51 51 51 51 51 50 50 50 50 49 49 50 50 51 50 48 47 45 44 43 43 43 42 42 41 41 40 40 40 39 39 38 38 37 36 36 35 34 34 34 33 32
52 52 51 52 52 52 53 52 53 52 52 51 51 51 52 52 51 49 48 47 46 46 44 43 44 44 42 41 41 41 41 40 39 39 38 37 36 36 36 36 35 35 34
52 52 53 53 54 54 54 54 53 53 53 53 54 54 55 52 52 53 52 49 48 47 47 46 46 45 45 43 43 42 41 41 40 40 40 39 39 38 38 37 37 37 36
52 52 53 54 54 55 56 55 55 55 55 55 56 55 55 54 55 54 54 53 51 50 49 49 48 47 46 46 46 45 44 43 42 41 42 41 41 40 38 38 39 38 38
52 52 53 53 54 55 56 56 56 56 55 55 55 55 56 56 56 57 56 56 56 54 51 49 49 49 48 47 47 45 45 45 45 44 43 42 42 41 41 41 41 40 40
50 51 52 52 53 54 55 55 56 56 56 55 55 55 55 56 56 56 56 56 55 55 54 52 51 50 50 49 48 47 46 46 46 46 46 45 45 44 43 43 43 42 42
49 50 50 52 53 54 55 54 54 54 54 54 54 54 54 54 54 55 57 57 56 54 55 54 52 51 50 49 49 49 49 49 49 49 49 48 48 46 45 44 44 43 43
44 45 47 48 50 51 52 53 52 51 51 52 52 52 52 52 53 55 56 57 57 56 56 55 55 54 52 51 50 50 51 51 51 51 51 51 49 48 47 46 45 45 44
41 42 43 44 45 47 49 50 50 49 49 49 49 50 50 51 52 54 55 56 56 57 57 56 56 54 54 54 51 52 53 53 53 53 52 52 51 50 49 48 48 47 47
36 37 38 39 41 42 44 46 46 47 48 47 48 49 50 51 52 53 54 55 56 57 57 57 57 56 55 55 54 53 54 54 53 53 53 53 52 52 51 50 49 49 48
32 32 34 35 37 37 39 41 43 44 45 46 47 47 48 50 51 52 52 54 55 57 58 57 57 57 56 56 55 55 56 55 55 55 55 54 53 53 52 52 52 51 51
28 29 30 32 33 34 35 37 39 41 43 44 46 46 47 48 49 51 52 54 55 57 58 58 58 59 59 58 58 58 58 57 57 57 57 56 55 55 55 55 55 55 54
24 25 26 27 28 30 32 34 35 37 39 41 43 45 46 46 48 49 51 53 53 55 57 57 58 59 59 59 59 60 59 58 58 58 58 58 58 57 57 58 58 57 57
20 21 22 23 25 27 29 32 34 36 37 39 41 43 44 46 47 49 50 51 52 53 54 55 57 57 59 59 59 60 60 60 59 60 60 60 60 59 59 60 60 60 58
18 19 20 21 23 24 26 29 31 34 36 38 40 42 43 45 46 47 48 50 51 52 54 55 56 57 58 59 60 60 60 60 60 60 61 61 61 61 61 62 62 61 59
18 19 20 21 23 24 26 28 31 33 35 37 38 40 41 42 44 45 47 49 50 52 53 54 55 57 58 59 59 60 60 61 61 62 63 62 62 61 61 62 62 61 61
19 20 22 23 24 25 26 28 30 32 34 36 38 39 40 41 43 44 45 47 49 50 52 53 54 54 55 57 58 59 61 61 61 61 63 63 64 64 63 63 62 62 62
21 22 23 24 25 27 28 29 31 32 34 35 37 39 40 42 43 44 46 47 48 49 51 53 54 56 57 58 59 60 61 62 62 63 64 64 64 64 64 63 63 63 62
23 24 25 25 26 28 29 30 31 32 33 35 36 38 40 42 43 45 46 47 48 50 52 54 55 56 57 59 60 61 62 63 63 63 63 63 63 64 63 62 62 63 63
26 27 27 28 29 30 30 31 32 33 35 36 37 39 41 42 43 44 46 48 50 51 53 55 56 56 58 58 60 62 63 62 62 61 61 61 61 62 61 61 61 61 61
Wind_Direction
263 263 263 263 263 263 262 261 260 260 260 261 262 262 261 262 263 263 263 263 264 265 266 267 268 269 270 271 272 274 276 278 280 283 285 286 288 290 292 293 295 297 298
263 263 263 263 262 262 261 260 260 259 260 261 262 261 260 261 262 263 263 263 264 264 265 266 267 267 268 270 271 273 275 277 279 281 283 284 286 287 289 291 293 295 296
262 263 262 262 261 261 261 260 259 259 259 259 260 260 260 261 261 262 262 263 263 264 264 265 266 267 267 269 270 272 274 276 277 278 280 282 284 286 287 289 291 293 294
261 262 262 262 261 260 260 260 260 258 258 258 258 259 260 260 261 261 262 262 263 263 263 265 266 266 266 267 269 271 272 274 274 276 278 279 281 283 285 285 287 289 291
261 262 262 261 260 260 259 260 260 260 259 258 257 258 258 259 260 260 261 262 262 263 263 264 265 265 266 267 268 270 271 272 274 275 276 277 279 281 282 283 285 286 288
261 261 261 261 260 259 258 258 258 259 258 257 257 258 258 258 258 259 260 260 260 262 263 264 265 265 266 266 267 268 270 271 272 273 274 275 276 278 279 281 283 284 286
261 260 260 260 260 259 258 257 257 258 258 258 258 258 257 257 257 258 259 260 261 261 262 264 264 266 264 265 266 267 268 270 270 271 271 273 275 275 277 279 281 282 284
262 261 260 259 259 258 258 257 257 258 257 258 258 258 258 258 257 258 258 259 260 260 261 262 263 266 265 265 266 267 268 268 269 269 270 271 273 276 277 277 279 280 282
262 262 260 259 258 258 258 258 257 258 258 258 259 259 259 258 258 257 257 258 258 259 259 260 262 264 264 265 266 266 267 267 267 268 269 270 271 273 274 275 277 279 280
262 261 260 259 258 258 258 258 258 258 258 258 259 259 258 259 259 257 257 256 258 259 260 260 261 262 263 265 265 266 266 266 267 268 269 269 271 272 272 274 276 278 279
261 261 260 258 257 257 257 258 258 258 258 258 259 259 259 259 258 257 256 256 257 259 260 259 259 260 261 262 263 263 264 264 265 266 267 267 270 270 271 273 274 276 276
262 262 260 259 258 257 257 257 257 257 257 258 259 259 259 259 258 257 256 255 256 257 258 258 258 259 260 260 261 262 263 264 265 265 266 266 268 268 269 271 273 274 274
263 262 261 260 258 257 256 256 256 256 256 257 258 258 258 258 258 257 257 255 255 256 256 257 258 259 259 259 260 260 261 263 264 265 266 266 266 267 268 270 271 272 274
264 264 263 261 259 257 255 254 255 256 256 256 256 256 256 256 256 257 257 256 256 256 256 257 258 259 260 260 261 261 261 263 264 266 266 266 266 266 267 268 270 271 272
266 266 265 262 260 257 255 254 255 255 255 255 256 256 256 257 257 257 257 257 257 256 255 257 259 259 260 261 261 262 263 264 264 265 266 266 265 265 266 267 269 270 269
268 266 265 263 260 258 255 253 253 255 256 256 257 258 258 259 259 259 258 257 258 258 258 258 259 260 260 261 262 263 263 264 264 265 266 266 266 265 265 266 267 268 268
270 268 266 263 260 258 255 254 254 255 256 257 258 259 260 260 259 259 260 260 259 259 260 258 259 260 261 260 262 263 263 264 264 265 265 265 265 265 265 265 265 267 268
272 270 268 265 261 258 257 256 257 257 258 259 259 260 263 262 262 261 261 261 261 261 261 260 260 261 262 262 262 263 264 263 264 264 264 264 264 265 265 264 265 267 267
276 274 272 270 266 262 261 261 261 261 263 263 262 263 264 263 264 264 263 263 263 263 262 262 261 261 262 263 263 263 263 264 264 264 264 265 265 265 265 264 265 266 266
283 277 275 274 270 266 264 263 263 265 266 265 266 267 266 266 266 266 265 264 264 264 263 264 263 263 263 263 264 263 263 263 264 264 264 264 264 264 265 265 265 265 265
288 284 280 278 276 273 271 269 268 269 269 269 269 270 270 269 268 267 266 265 266 265 265 265 265 264 264 264 264 265 264 265 265 265 265 264 264 264 265 264 264 264 264
292 289 286 283 281 279 278 276 275 274 273 273 273 273 273 272 270 269 268 268 268 267 267 267 266 265 265 265 266 266 266 266 266 266 265 264 264 264 265 264 264 263 262
296 293 291 287 285 284 283 282 281 281 280 278 277 276 275 276 275 274 272 271 270 269 269 268 269 268 268 268 267 268 268 268 268 266 265 264 265 265 264 263 262 261 261
301 298 296 293 290 289 287 286 286 286 285 283 282 280 279 279 278 277 275 273 272 271 271 271 271 270 270 270 269 269 268 268 268 267 266 266 265 264 263 263 262 261 261
302 301 299 297 294 293 292 290 289 289 288 287 285 284 283 281 280 278 277 276 275 274 272 273 273 272 271 271 270 270 270 270 269 267 267 267 264 263 263 263 262 262 261
302 301 299 297 295 294 293 292 292 291 290 289 288 287 286 284 282 281 280 278 277 276 275 275 274 274 273 272 272 271 271 271 270 268 267 267 266 265 263 261 261 261 260
Height
5814 5815 5816 5817 5819 5820 5821 5822 5823 5824 5825 5826 5827 5828 5829 5830 5831 5831 5832 5832 5832 5833 5833 5833 5833 5833 5833 5833 5833 5832 5832 5831 5830 5829 5828 5827 5826 5825 5823 5822 5820 5819 5817
5805 5806 5807 5808 5810 5811 5812 5813 5815 5816 5817 5818 5819 5820 5821 5822 5823 5824 5824 5825 5825 5826 5826 5826 5826 5826 5826 5826 5826 5826 5825 5825 5824 5823 5822 5821 5820 5819 5817 5816 5814 5813 5811
5796 5797 5798 5799 5801 5801 5802 5804 5805 5806 5808 5809 5811 5811 5812 5814 5815 5816 5816 5817 5817 5818 5818 5819 5819 5819 5819 5819 5819 5819 5818 5818 5817 5816 5815 5815 5814 5812 5811 5810 5808 5807 5805
5786 5787 5788 5790 5791 5792 5793 5794 5795 5797 5798 5800 5801 5802 5803 5805 5806 5807 5807 5808 5809 5809 5810 5811 5811 5811 5811 5811 5811 5811 5811 5810 5810 5809 5808 5808 5807 5806 5804 5803 5802 5800 5799
5775 5777 5778 5779 5780 5781 5783 5784 5785 5787 5789 5790 5791 5792 5794 5795 5796 5797 5798 5799 5800 5801 5801 5802 5802 5802 5802 5803 5803 5803 5803 5802 5802 5802 5801 5800 5799 5798 5798 5796 5795 5794 5793
5764 5765 5767 5768 5769 5771 5772 5773 5775 5776 5778 5779 5780 5782 5784 5785 5786 5788 5789 5789 5790 5792 5792 5793 5793 5794 5794 5794 5794 5794 5794 5794 5794 5793 5793 5793 5792 5791 5790 5789 5788 5787 5786
5752 5753 5755 5756 5758 5759 5761 5763 5764 5765 5767 5768 5769 5771 5773 5774 5776 5777 5778 5780 5781 5782 5783 5783 5784 5784 5784 5785 5785 5785 5785 5785 5785 5785 5785 5784 5784 5783 5783 5782 5781 5780 5779
5739 5740 5742 5744 5745 5747 5749 5751 5752 5753 5755 5756 5757 5758 5760 5763 5765 5766 5767 5769 5771 5771 5772 5773 5774 5774 5775 5775 5775 5776 5776 5776 5776 5776 5776 5776 5776 5775 5774 5774 5773 5772 5771
5726 5727 5729 5730 5732 5734 5736 5738 5739 5741 5743 5744 5744 5746 5748 5751 5753 5754 5755 5757 5759 5760 5761 5762 5763 5763 5764 5765 5765 5765 5765 5766 5766 5766 5766 5766 5766 5766 5766 5765 5764 5763 5763
5713 5714 5715 5717 5718 5720 5722 5724 5726 5727 5729 5731 5732 5732 5734 5737 5739 5741 5743 5745 5746 5748 5749 5750 5752 5752 5753 5754 5754 5755 5755 5755 5756 5756 5756 5756 5756 5756 5756 5755 5755 5754 5754
5700 5701 5702 5703 5704 5706 5708 5710 5712 5713 5715 5717 5718 5719 5720 5722 5724 5727 5730 5732 5733 5735 5736 5738 5739 5740 5741 5742 5743 5743 5744 5744 5745 5745 5745 5745 5746 5745 5745 5745 5745 5744 5744
5687 5687 5688 5689 5690 5692 5694 5696 5697 5699 5701 5703 5704 5705 5706 5708 5711 5712 5715 5718 5720 5722 5723 5724 5726 5727 5728 5729 5731 5731 5732 5732 5733 5733 5734 5734 5734 5734 5734 5734 5734 5734 5734
5675 5674 5674 5675 5676 5678 5680 5681 5683 5685 5687 5688 5690 5691 5692 5694 5696 5697 5699 5702 5705 5708 5710 5712 5713 5714 5715 5717 5718 5718 5719 5720 5721 5721 5722 5722 5722 5723 5723 5723 5723 5723 5723
5662 5662 5661 5662 5662 5664 5665 5668 5670 5672 5673 5675 5676 5677 5679 5680 5682 5683 5685 5687 5690 5693 5696 5699 5700 5701 5702 5703 5704 5705 5706 5707 5708 5708 5708 5709 5710 5710 5710 5711 5711 5711 5711
5650 5650 5649 5649 5650 5651 5653 5655 5657 5659 5661 5662 5664 5664 5666 5667 5668 5670 5671 5673 5675 5678 5682 5685 5687 5688 5688 5689 5691 5691 5692 5693 5694 5694 5695 5695 5696 5697 5697 5698 5698 5698 5698
5640 5639 5638 5638 5639 5640 5641 5643 5646 5647 5649 5650 5651 5652 5653 5654 5655 5656 5657 5659 5660 5662 5666 5671 5672 5673 5674 5675 5676 5677 5678 5679 5679 5679 5680 5681 5681 5682 5683 5683 5684 5684 5684
5630 5629 5628 5628 5629 5629 5631 5632 5634 5636 5637 5639 5640 5640 5641 5642 5642 5643 5645 5645 5647 5648 5650 5655 5656 5657 5658 5659 5660 5661 5662 5662 5663 5664 5664 5665 5666 5667 5667 5668 5669 5669 5670
5623 5621 5620 5620 5620 5621 5622 5623 5624 5625 5626 5628 5628 5629 5629 5630 5630 5631 5632 5632 5633 5633 5635 5639 5641 5642 5642 5643 5644 5645 5646 5646 5647 5648 5648 5649 5650 5650 5651 5652 5653 5654 5654
5617 5615 5614 5613 5613 5613 5614 5614 5615 5616 5616 5617 5617 5617 5618 5618 5618 5618 5618 5619 5619 5619 5620 5622 5624 5625 5626 5626 5627 5628 5628 5629 5629 5630 5631 5632 5633 5633 5634 5635 5636 5637 5638
5612 5610 5609 5608 5607 5607 5606 5607 5607 5607 5607 5607 5607 5606 5606 5606 5606 5605 5605 5605 5604 5605 5605 5606 5607 5608 5609 5609 5609 5610 5611 5612 5612 5612 5613 5614 5615 5615 5616 5618 5619 5620 5620
5608 5606 5605 5603 5602 5601 5600 5600 5600 5599 5598 5597 5596 5595 5594 5593 5593 5592 5591 5591 5590 5590 5590 5590 5591 5591 5591 5592 5592 5593 5593 5594 5594 5594 5595 5595 5596 5597 5597 5598 5599 5600 5601
5604 5602 5600 5598 5597 5595 5594 5593 5592 5590 5589 5587 5586 5584 5583 5581 5580 5579 5578 5577 5576 5575 5575 5575 5574 5574 5574 5574 5575 5575 5575 5575 5576 5577 5576 5577 5576 5578 5579 5579 5580 5581 5582
5599 5597 5595 5593 5592 5590 5587 5585 5583 5581 5579 5577 5575 5573 5571 5569 5568 5566 5564 5563 5561 5560 5559 5559 5558 5557 5557 5557 5557 5557 5556 5555 5556 5556 5555 5557 5557 5557 5558 5559 5560 5561 5563
5595 5592 5589 5587 5585 5582 5580 5577 5575 5572 5570 5567 5565 5562 5560 5557 5555 5553 5550 5548 5546 5544 5543 5542 5542 5540 5539 5537 5537 5536 5536 5536 5536 5535 5533 5535 5536 5537 5538 5538 5538 5540 5542
5590 5586 5583 5580 5577 5574 5571 5568 5566 5563 5560 5557 5554 5550 5547 5545 5542 5539 5536 5534 5532 5529 5527 5525 5524 5522 5520 5518 5517 5516 5515 5514 5515 5514 5512 5512 5514 5515 5517 5518 5518 5518 5520
5583 5580 5576 5573 5569 5566 5563 5559 5556 5553 5550 5546 5543 5539 5535 5531 5528 5524 5521 5519 5516 5513 5510 5508 5505 5503 5501 5499 5496 5495 5494 5493 5492 5493 5492 5491 5492 5492 5496 5498 5498 5498 5499